Skip Page Navigation
NASA JPL Caltech
NASA Logo - Jet Propulsion Laboratory + View the NASA Portal
+ Center for Near-Earth Object Studies
JPL Home Earth Solar System Stars & Galaxies Technology
JPL Solar System Dynamics
BODIES ORBITS EPHEMERIDES TOOLS PHYSICAL DATA DISCOVERY FAQ SITE MAP
IMPORTANT: The SSD Announcement email list is now available. Major changes are coming in the near future, including possible hostname and/or URL changes. To be notified of such changes, subscribe to this email list.

Please visit this page for more details.


JPL Small-Body Database Browser
Search: [ help ]  
447490 (2006 RN51)
Classification: Main-belt Asteroid          SPK-ID: 2447490
Ephemeris | Orbit Diagram | Orbital Elements | Mission Design | Physical Parameters | Discovery Circumstances ]

[ show orbit diagram ]
Orbital Elements at Epoch 2458600.5 (2019-Apr-27.0) TDB
Reference: JPL 15 (heliocentric ecliptic J2000)
 Element Value Uncertainty (1-sigma)   Units 
e .1286661294081418 1.1005e-07  
a 2.704615617450163 2.5283e-08 au
q 2.356623194416039 3.1178e-07 au
i 5.838625871512326 8.6809e-06 deg
node 191.7317196744753 6.5859e-05 deg
peri 172.4880857455307 7.3472e-05 deg
M 308.1566658522032 3.0561e-05 deg
tp 2458834.462997814000
(2019-Dec-16.96299781)
0.00013938 TDB
period 1624.638549922801
4.45
2.2781e-05
6.237e-08
d
yr
n .221587749482558 3.1071e-09 deg/d
Q 3.052608040484287 2.8536e-08 au
  Orbit Determination Parameters
   # obs. used (total)      156  
   data-arc span      4792 days (13.12 yr)  
   first obs. used      2006-09-14  
   last obs. used      2019-10-28  
   planetary ephem.      DE431  
   SB-pert. ephem.      SB431-N16  
   condition code      0  
   norm. resid. RMS      .58863  
   source      ORB  
   producer      Otto Matic  
   solution date      2019-Nov-08 16:21:12  

Additional Information
 Earth MOID = 1.35388 au 
 Jupiter MOID = 2.40733 au 
 T_jup = 3.346 
[ show covariance matrix ]

Ephemeris | Orbit Diagram | Orbital Elements | Mission Design | Physical Parameters | Discovery Circumstances ]

Physical Parameter Table
Parameter Symbol Value Units Sigma Reference Notes
absolute magnitude H 17.0   n/a MPO413514  

447490 (2006 RN51)          Discovered 2006-Sep-14 by Spacewatch at Kitt Peak
Reference: Last Updated: 2015-10-28
Ephemeris | Orbit Diagram | Orbital Elements | Mission Design | Physical Parameters | Discovery Circumstances ]
ABOUT SSD CREDITS/AWARDS PRIVACY/COPYRIGHT GLOSSARY LINKS
FirstGov
(server date/time)  
NASA Home Page
Site Manager:   Ryan S. Park
Webmaster  Alan B. Chamberlin